Regional Weather Roundup
Issued by NWS

Home | Current Version | Previous Version | Text Only | Print | Product List | Glossary On
Versions: 1 2 3 4 5 6 7 8 9 10 11 12 13 14 15 16 17 18 19 20 21 22 23 24 25 26 27 28 29 30 31 32 33 34 35 36 37 38 39 40 41 42 43 44 45 46 47 48 49 50
000
ASUS43 KDTX 130801
RWRMI
MICHIGAN HOURLY REGIONAL WEATHER ROUNDUP
NATIONAL WEATHER SERVICE DETROIT/PONTIAC MI
400 AM EDT SUN JUL 13 2014

NOTE: "FAIR" INDICATES FEW OR NO CLOUDS BELOW 12,000 FEET WITH NO
SIGNIFICANT WEATHER AND/OR OBSTRUCTION TO VISIBILITY.

MIZ047>049-052>055-059>063-066>070-074>076-081>083-130900-
SOUTHEAST LOWER MICHIGAN

CITY           SKY/WX    TMP DP  RH WIND       PRES   REMARKS
ADRIAN         CLOUDY    73  70  90 SW10      29.87F
ALMA           DRIZZLE   71  69  94 SW13      29.76S
ANN ARBOR      LGT RAIN  72  69  90 S7        29.84F
BAD AXE        HVY RAIN  70  68  94 W8G20     29.76F
CARO           LGT RAIN  73  72  98 S10       29.75F
DETROIT CITY   LGT RAIN  78  68  71 SW13G22   29.82F
DETROIT        LGT RAIN  74  70  87 S15       29.84F
FLINT          LGT RAIN  73  69  87 S12       29.78F
GROSSE ILE     LGT RAIN  77  72  83 SW15G22   29.83F
HILLSDALE      LGT RAIN  73  73 100 SW5       29.87F
HOWELL         LGT RAIN  72  70  94 SW10      29.82F

CITY           SKY/WX    TMP DP  RH WIND       PRES   REMARKS
JACKSON        LGT RAIN  74  71  91 SW12G22   29.84F
LAMBERTVILLE   CLOUDY    75  68  78 SW9       29.87F
LANSING        LGT RAIN  73  70  90 SW17G36   29.81S
LAPEER         RAIN      71  68  92 SW8       29.80F
MASON          RAIN      72  70  93 SW7       29.82S
MONROE         LGT RAIN  75  70  83 SW10      29.84F
PONTIAC        LGT RAIN  72  68  87 SW8       29.82F
PORT HOPE        N/A     72  68  87 SW8G17    29.72F
PORT HURON     LGT RAIN  73  68  83 S9        29.80F
TRI CITIES     HVY RAIN  73  70  90 SW14      29.74F FOG
TROY           LGT RAIN  73  70  88 SW10      29.83F
SAGINAW HB     HVY RAIN  72  72 100 SW12G20   29.74F
$$
MIZ043>046-050>051-056>058-064>065-071>073-077>080-130900-
SOUTHWEST LOWER MICHIGAN

CITY           SKY/WX    TMP DP  RH WIND       PRES   REMARKS
BATTLE CREEK   CLOUDY    72  69  90 W15       29.85R
BENTON HARBOR  CLOUDY    69  68  96 CALM      29.84F
BIG RAPIDS     CLOUDY    69  69 100 W6        29.77S
COLDWATER      RAIN      75  73  95 W13       29.86S
FREMONT        CLOUDY    69  69 100 SW7       29.80R
HOLLAND        CLOUDY    71  68  90 SW8       29.84R
GRAND RAPIDS   HVY RAIN  72  71  97 W9        29.82R FOG
IONIA          RAIN      70  69  95 W18G26    29.80R
KALAMAZOO      CLOUDY    71  68  90 W9        29.85F
LUDINGTON      PTCLDY    61  60  96 NW6       29.83R
MARSHALL       LGT RAIN  73  71  94 W17       29.85R
MOUNT PLEASANT LGT RAIN  71  69  96 SW8       29.74F
MUSKEGON       CLOUDY    67  64  90 W8        29.81R
SOUTH HAVEN    CLOUDY    70  70 100 CALM      29.84F
$$
MIZ016>042-130900-
NORTHERN LOWER MICHIGAN

CITY           SKY/WX    TMP DP  RH WIND       PRES   REMARKS
ALPENA         CLOUDY    68  67  96 W5        29.72F
BEAVER ISLAND  CLEAR     58  58 100 W5        29.75F
BELLAIRE       FOG       65  64  95 CALM      29.76S VSB 1
CADILLAC       MOCLDY    66  66 100 W9        29.79S
CHARLEVOIX     CLEAR     61  61  98 SW6       29.78F
FRANKFORT      MOCLDY    60  57  91 CALM      29.80F FOG
GAYLORD        MOCLDY    64  63  96 W5        29.77F
GRAYLING       CLOUDY    68  68 100 W9        29.78S FOG
HARBOR SPRINGS FOG       64  63  99 SW5       29.74F VSB 1/2
HOUGHTON LAKE  CLOUDY    69  68  96 W7        29.76F
MANISTEE       PTCLDY    61  57  88 W5        29.82S
OSCODA         RAIN      71  69  93 SW12      29.71F
PELLSTON       PTCLDY    63  62  97 CALM      29.74F FOG
ROGERS CITY    CLOUDY    65  65 100 W5        29.74S FOG
TRAVERSE CITY  CLEAR     66  63  90 W8        29.77R
$$
MIZ007>008-015-130900-
EASTERN UPPER MICHIGAN

CITY           SKY/WX    TMP DP  RH WIND       PRES   REMARKS
KINROSS        CLOUDY    63  63 100 SW7       29.73F VSB 1/2
MACKINAC ISLAN FOG       61  61 100 W8        29.73F VSB 3/4
NEWBERRY       MOCLDY    57  57  99 SW6       29.74F FOG
S. S. MARIE    CLOUDY    64  62  93 SW3       29.71F
$$
MIZ004>006-011>014-085-130900-
CENTRAL UPPER MICHIGAN

CITY           SKY/WX    TMP DP  RH WIND       PRES   REMARKS
MANISTIQUE     FOG       53  53  99 CALM      29.74F VSB 1/4
ESCANABA       CLEAR     61  57  88 W5        29.76S
MENOMINEE      CLEAR     61  57  88 NW3       29.79S
SAWYER-GWINN   PTCLDY    60  59  97 CALM      29.76F FOG
$$
MIZ001>003-009>011-084-130900-
WESTERN UPPER MICHIGAN

CITY           SKY/WX    TMP DP  RH WIND       PRES   REMARKS
IRON MOUNTAIN  CLEAR     63  60  90 W12       29.77F
HOUGHTON       PTCLDY    57  53  86 NW13      29.74F
COPPER HARBOR    N/A     63  57  81 N14       29.71S
IRONWOOD       PTCLDY    57  50  77 CALM      29.79F
$$

ABBREVIATIONS USED IN REMARKS
   TC - TEMPERATURE IN CELSIUS
  WCI - WIND CHILL INDEX
   HX - HEAT INDEX
  VSB - VISIBILITY



USA.gov is the U.S. government's official web portal to all federal, state and local government web resources and services.